Tracking 28920 objects as of 27-May-2024
HD Live streaming from Space Station
objects crossing your sky now

SHIYAN 10 02 (SY-10 02)

Track SHIYAN 10 02 (SY-10 02) now!


NORAD ID: 54878
Int'l Code: 2022-178A
Perigee: 1,343.8 km
Apogee: 39,026.3 km
Inclination: 63.7 °
Period: 717.8 minutes
Semi major axis: 26556 km
RCS: Unknown
Launch date: December 29, 2022
Source: People's Republic of China (PRC)
Launch site: Xichang Space Center, China (XSC)
Your satellite tracking list
Your tracking list is empty




NASA's NSSDC Master Catalog

Two Line Element Set (TLE):
1 54878U 22178A   24146.96997381  .00000890  00000-0  00000-0 0  9998
2 54878  63.7151  52.7266 7094887 269.2620  16.4156  2.00611945  1467
Source of the keplerian elements: AFSPC